This is the latest recevied weather packets stored in our database for station/object K4GSL. If no packets are shown the sender has not sent any weather packets the latest 1 day(s).
| Time | Temp. | Humidity | Pressure | Rain* | Wind** | Luminosity | Snow |
|---|---|---|---|---|---|---|---|
| 1778044177 | 11.67° C | 97% | 1021 hPa | 0 mm | 0 m/s | 0 W/m² | - |
| 1778043875 | 11.67° C | 97% | 1020.9 hPa | 0 mm | 0 m/s | 0 W/m² | - |
| 1778043572 | 11.67° C | 97% | 1021 hPa | 0 mm | 0 m/s | 0 W/m² | - |
| 1778043269 | 11.67° C | 97% | 1021 hPa | 0 mm | 0 m/s | 0 W/m² | - |
| 1778042965 | 11.67° C | 97% | 1020.9 hPa | 0 mm | 0 m/s | 0 W/m² | - |
| 1778042664 | 11.67° C | 96% | 1020.9 hPa | 0 mm | 0 m/s | 0 W/m² | - |
| 1778042360 | 12.22° C | 95% | 1020.9 hPa | 0 mm | 0 m/s | 0 W/m² | - |
| 1778042057 | 12.22° C | 95% | 1020.6 hPa | 0 mm | 0 m/s | 0 W/m² | - |
| 1778041755 | 12.22° C | 95% | 1020.8 hPa | 0 mm | 0 m/s | 0 W/m² | - |
| 1778041454 | 12.22° C | 95% | 1020.8 hPa | 0 mm | 0 m/s | 0 W/m² | - |
| 1778041152 | 12.78° C | 94% | 1020.4 hPa | 0 mm | 0 m/s | 0 W/m² | - |
| 1778040849 | 12.78° C | 94% | 1020.4 hPa | 0 mm | 0 m/s | 0 W/m² | - |
| 1778040546 | 12.78° C | 93% | 1020.4 hPa | 0 mm | 0 m/s | 0 W/m² | - |
| 1778040244 | 12.78° C | 93% | 1020.3 hPa | 0 mm | 0 m/s | 0 W/m² | - |
| 1778039939 | 12.78° C | 92% | 1020.2 hPa | 0 mm | 0 m/s | 0 W/m² | - |
| 1778039637 | 13.33° C | 91% | 1020.3 hPa | 0 mm | 0 m/s | 0 W/m² | - |
| 1778039334 | 13.33° C | 91% | 1020.2 hPa | 0 mm | 0 m/s | 0 W/m² | - |
| 1778039031 | 13.89° C | 89% | 1020.2 hPa | 0 mm | 0 m/s | 0 W/m² | - |
| 1778038728 | 13.89° C | 88% | 1020 hPa | 0 mm | 0 m/s | 0 W/m² | - |
| 1778038425 | 15.56° C | 84% | 1019.8 hPa | 0 mm | 0 m/s | 1 W/m² | - |
| 1778038122 | 15.56° C | 84% | 1019.9 hPa | 0 mm | 0 m/s | 1 W/m² | - |
| 1778037819 | 15.56° C | 84% | 1019.9 hPa | 0 mm | 0 m/s | 1 W/m² | - |
| 1778037516 | 16.11° C | 82% | 1019.9 hPa | 0 mm | 0 m/s | 3 W/m² | - |
| 1778037213 | 16.11° C | 82% | 1019.8 hPa | 0 mm | 0 m/s | 3 W/m² | - |
| 1778036911 | 18.89° C | 72% | 1019.8 hPa | 0 mm | 0 m/s | 20 W/m² | - |
* Rain latest hour (hover to see other rain measurements)
** Current wind speed in m/s (hover to see current wind gust speed)